Home > Weather > Letterkenny > Past weeks

Flag for Ireland Weather for the Past 2 Weeks in Letterkenny, Ireland

Now
30 °F

Chilly.


Feels Like: 30 °F
Forecast: N/A
Wind: 1 mph from Southwest

Location: Castlederg

Current Time: Feb 11, 2016 at 10:11:04 PM

Latest Report: Feb 11, 2016 at 9:00 PM


Visibility: N/A

Pressure: 29.47 "Hg

Humidity: 96%

Dew point: 29 °F

Location of LetterkennyLocation

Historic Weather in Letterkenny — Graph

°F

Letterkenny Temperature Yesterday

Maximum temperature yesterday: 46 °F (at 3:00 PM)
Minimum temperature yesterday: 31 °F (at 8:00 AM)
Average temperature yesterday: 38 °F

High & Low Weather Summary for the Past Weeks

 TemperatureHumidityPressure
High53 °F (Feb 1, 6:00 AM)99% (Feb 11, 10:00 AM)30.24 "Hg (Feb 11, 10:00 AM)
Low30 °F (Feb 11, 8:00 AM)55% (Feb 2, 2:00 PM)28.44 "Hg (Feb 8, 5:00 AM)
Average41 °F87%29.44 "Hg
* Reported Jan 27 7:00 PM — Feb 11 7:00 PM, Letterkenny, Weather by CustomWeather, © 2016

Note: Actual official high and low records may vary slightly from our data, if they occured in-between our weather recording intervals... More about our weather records

Advertising

Letterkenny Weather History for the Previous 24 Hours

 ConditionsComfort  
Time TempWeatherWind HumidityBarometerVisibility
7:00 PM
Thu, Feb 11
33 °FChilly.1 mph94%29.50 "HgN/A
6:00 PM34 °FChilly.3 mph95%29.50 "HgN/A
5:00 PM35 °FChilly.1 mph92%29.50 "HgN/A
4:00 PM38 °FChilly.1 mph91%29.53 "HgN/A
3:00 PM38 °FChilly.1 mph87%29.54 "HgN/A
2:00 PM40 °FChilly.2 mph85%29.55 "HgN/A
1:00 PM38 °FChilly.5 mph90%29.58 "HgN/A
12:00 PM37 °FChilly.1 mph97%29.59 "HgN/A
11:00 AM33 °FChilly.2 mph98%29.60 "HgN/A
10:00 AM32 °FChilly.No wind99%29.61 "HgN/A
9:00 AM31 °FChilly.2 mph98%29.61 "HgN/A
8:00 AM30 °FChilly.3 mph98%29.60 "HgN/A
7:00 AM31 °FChilly.1 mph98%29.60 "HgN/A
6:00 AM31 °FChilly.1 mph96%29.60 "HgN/A
5:00 AM32 °FChilly.1 mph96%29.59 "HgN/A
4:00 AM33 °FChilly.2 mph95%29.60 "HgN/A
3:00 AM34 °FChilly.2 mph95%29.60 "HgN/A
1:00 AM35 °FChilly.1 mph94%29.60 "HgN/A
12:00 AM37 °FChilly.2 mph93%29.60 "HgN/A
11:00 PM
Wed, Feb 10
38 °FChilly.10 mph94%29.59 "HgN/A
10:00 PM36 °FChilly.3 mph92%29.59 "HgN/A
Weather by CustomWeather, © 2016

See weather overviewHow to use our weather pages